Theta_e
326 326 326 328 329 331 335 339 344 345 345 349 348 349 349 347 347 347 347 346 346 348 347 348 349 347 347 346 343 343 344 345 347 346 346 344 347 346 346 344 339 343 341 342
323 325 326 327 328 331 334 338 341 342 346 346 348 347 342 343 345 347 347 346 347 347 346 347 348 347 345 344 343 343 343 345 347 348 347 346 347 347 346 347 344 344 344 343
322 325 326 329 329 332 332 336 339 342 347 344 346 344 346 343 339 342 346 347 347 347 347 347 347 346 344 346 343 342 343 346 347 349 349 349 347 338 344 343 343 343 339 342
321 323 326 326 326 329 329 332 336 344 344 344 341 343 339 342 341 339 341 344 348 347 347 347 346 346 345 347 345 345 343 346 347 348 347 347 342 340 337 340 341 340 338 340
319 326 327 327 327 329 328 330 332 342 340 344 347 343 340 340 341 340 341 343 347 348 347 347 347 347 346 348 347 346 345 348 348 349 348 345 342 341 339 341 340 339 339 341
317 321 323 323 325 326 327 327 328 331 336 338 338 344 336 342 342 341 341 343 342 347 348 348 348 347 348 348 344 346 348 349 349 351 350 348 345 345 341 344 343 341 341 342
317 317 319 322 321 321 325 320 322 327 333 337 332 339 340 335 339 341 342 345 344 345 347 347 347 347 348 348 345 345 348 350 350 351 350 349 347 344 344 345 344 343 343 342
315 316 318 321 320 321 320 319 322 329 330 330 331 339 336 339 339 342 342 343 344 344 346 347 347 347 348 348 347 347 346 349 350 346 352 350 347 347 345 345 343 342 343 344
314 316 317 320 321 321 322 324 322 322 320 328 335 336 334 338 340 340 340 341 341 343 345 347 347 347 348 347 349 347 349 346 348 352 352 350 349 345 341 342 344 345 345 345
315 317 317 319 320 320 319 319 321 317 326 327 325 337 336 336 339 340 341 341 341 340 343 347 348 348 348 348 348 347 350 348 351 354 354 351 347 345 345 344 345 346 345 342
312 314 319 319 318 318 317 319 319 316 318 322 323 326 330 333 335 337 339 342 341 342 343 347 348 349 348 348 348 350 353 354 355 354 351 349 347 345 345 345 344 342 340 333
315 311 315 316 317 317 316 318 315 317 319 317 318 321 321 330 332 337 339 341 342 341 344 345 349 349 349 346 348 350 357 357 352 352 349 347 344 344 343 340 336 331 324 320
320 313 314 315 316 317 320 318 316 313 314 317 320 321 328 335 334 338 339 337 338 341 344 346 348 349 347 348 351 357 357 352 350 348 345 343 340 342 337 333 327 323 317 315
319 311 314 316 315 316 321 321 318 316 316 318 318 322 328 339 337 336 339 338 345 346 345 346 349 348 350 354 356 356 354 350 348 346 344 344 342 337 333 328 324 317 315 312
320 318 317 319 316 319 320 321 320 320 318 321 321 320 322 334 336 336 339 349 347 347 349 349 350 351 354 356 356 355 351 349 347 346 343 342 339 335 331 326 320 313 311 308
320 328 322 327 319 318 320 321 321 321 319 318 320 325 326 335 337 337 340 351 350 350 351 351 351 350 353 355 355 354 350 349 347 343 343 340 336 333 329 325 316 311 308 305
324 325 325 329 322 319 320 319 322 322 327 322 326 325 320 334 336 337 340 353 352 352 352 351 351 350 351 354 355 352 350 348 345 343 341 337 335 333 328 319 312 308 308 307
323 325 322 326 323 327 319 321 321 335 339 338 337 337 340 334 337 339 340 346 353 354 354 353 352 352 354 354 352 351 349 345 343 340 338 336 335 330 320 313 309 308 308 309
322 326 328 329 325 325 327 333 333 335 337 337 338 337 338 342 336 336 338 344 344 352 354 353 353 353 354 353 350 347 344 344 342 339 338 336 334 324 314 311 309 309 308 309
323 326 330 325 329 329 329 332 333 333 336 336 336 337 337 342 335 332 338 347 354 354 354 354 354 354 354 352 350 346 344 342 340 339 338 335 327 317 313 310 309 309 315 317
327 324 327 330 329 327 333 332 335 341 338 335 335 337 338 342 337 345 344 342 353 354 354 354 354 354 353 350 347 345 343 342 340 339 336 330 320 314 311 310 311 314 317 318
331 333 328 327 328 330 331 332 335 334 334 335 338 339 341 344 342 347 344 350 352 352 353 354 355 354 351 348 346 343 344 342 339 338 333 324 316 314 311 311 310 316 319 318
334 331 333 332 331 329 331 334 334 333 332 334 338 344 349 345 349 348 350 352 351 351 352 354 354 352 349 346 344 346 343 341 340 336 328 320 315 313 312 310 313 318 318 318
325 330 331 330 329 330 331 332 334 332 332 332 333 338 349 347 350 350 350 350 350 352 353 353 351 349 347 345 347 346 343 341 339 332 324 317 316 314 313 312 314 316 318 320
319 329 329 329 329 330 332 332 331 332 333 333 332 332 345 345 349 352 350 350 349 348 350 350 343 340 343 346 345 343 342 339 333 328 321 316 315 313 312 316 315 319 319 318
323 319 325 324 327 329 331 333 330 330 332 332 331 331 338 345 349 350 349 350 348 348 345 342 342 342 345 346 344 342 339 336 331 325 320 314 313 313 317 317 319 320 317 314
Wind_Speed
2 3 6 11 6 6 2 4 5 6 7 2 7 9 15 26 26 21 23 28 33 35 28 29 28 25 28 29 29 27 25 21 20 16 10 11 8 8 9 10 8 4 5 3
4 7 8 10 7 6 5 4 6 3 4 0 5 5 8 10 22 26 26 30 33 36 32 30 34 23 32 27 31 32 28 24 20 16 12 7 8 6 5 7 5 5 5 3
7 6 4 1 3 1 3 5 4 3 4 1 3 4 6 8 16 20 21 25 35 37 34 36 38 33 34 29 33 32 33 27 23 17 13 11 11 10 5 6 5 6 6 6
6 4 7 4 4 6 7 4 8 7 5 7 4 6 5 7 9 10 23 24 35 36 37 38 37 34 36 32 26 29 30 29 24 20 15 14 13 13 16 11 11 10 7 6
9 2 4 4 7 5 12 3 11 14 6 4 1 2 8 0 8 9 19 33 32 40 39 41 38 32 33 33 27 28 31 28 27 23 17 11 14 13 15 13 12 15 10 9
7 4 2 7 2 6 5 4 5 5 5 2 7 9 6 5 16 6 17 31 30 32 42 41 39 34 34 33 25 20 29 29 25 24 19 16 11 13 14 11 16 16 15 15
5 6 4 4 6 2 3 6 3 3 1 5 4 7 14 5 8 11 16 25 28 31 36 40 42 39 35 36 29 19 22 27 25 23 20 17 16 13 13 13 16 17 17 17
5 8 7 4 7 8 5 8 5 5 4 5 6 6 7 5 12 14 17 25 28 26 32 39 41 44 38 36 40 26 20 28 27 21 20 19 17 16 14 15 16 17 16 14
6 7 6 4 4 7 1 3 5 6 4 2 3 7 9 2 7 5 9 14 22 29 35 37 41 45 41 35 38 31 23 25 26 21 19 17 15 14 13 13 14 15 14 13
7 4 7 7 4 2 7 5 1 3 3 4 4 4 6 6 9 9 8 20 30 29 31 35 37 41 40 33 30 28 22 24 23 20 18 16 14 14 13 12 13 13 14 14
5 5 8 2 4 7 3 1 3 5 5 6 4 7 9 10 13 14 14 25 28 34 33 33 35 40 39 33 33 29 24 24 20 17 17 16 14 14 14 13 13 13 13 11
4 5 6 13 5 4 6 8 7 5 6 3 3 7 5 12 7 7 14 21 25 28 36 30 37 41 40 38 35 30 28 24 21 20 17 13 12 13 12 10 10 9 8 8
3 1 2 9 4 3 5 5 5 3 3 8 6 7 5 6 6 9 15 12 24 27 39 34 38 41 42 38 36 33 29 25 23 21 16 16 14 11 10 8 6 5 4 3
1 1 4 7 8 4 5 4 5 5 3 4 7 9 7 8 8 9 14 14 18 29 41 41 38 42 40 40 38 33 27 25 23 21 19 16 13 11 7 5 4 4 3 2
4 2 5 6 6 5 5 5 6 6 6 5 5 9 10 11 13 21 26 18 26 33 37 40 42 46 43 42 37 31 28 28 24 22 20 15 12 9 7 5 5 5 2 3
5 4 5 6 3 6 6 6 6 4 4 5 3 7 6 6 7 11 28 31 32 35 37 39 43 48 47 43 38 34 32 28 26 23 18 16 13 11 9 7 7 7 8 8
1 2 4 6 3 6 2 7 5 4 8 3 4 6 8 8 8 20 27 30 32 40 42 44 48 51 46 43 39 37 33 28 26 21 20 17 13 10 10 9 10 10 10 10
4 3 2 4 6 1 5 8 5 12 7 7 5 8 12 17 26 25 38 41 37 38 40 43 46 43 41 40 36 32 30 31 28 24 22 18 13 12 12 11 12 12 12 12
6 4 1 2 3 6 5 8 5 5 3 7 11 15 20 22 2 6 24 39 48 42 30 32 37 41 41 37 30 28 29 29 25 24 20 16 14 14 15 16 14 13 15 15
4 3 5 3 2 2 3 10 7 6 2 13 16 13 14 17 1 5 16 29 30 30 37 40 39 43 42 35 30 26 28 29 27 22 19 16 15 14 15 17 16 15 15 13
4 3 4 4 4 6 4 11 10 6 6 23 19 22 20 5 7 18 11 26 33 37 40 40 40 41 41 33 25 20 34 33 25 19 18 16 14 14 15 17 16 16 14 13
3 1 2 1 3 2 15 6 7 6 13 13 21 21 19 17 14 14 20 34 40 41 41 39 40 40 37 34 35 27 35 30 25 20 19 17 15 16 18 18 17 17 15 13
1 4 3 4 4 3 7 2 7 1 13 15 19 21 17 12 6 14 26 33 37 40 38 34 36 38 36 35 35 24 33 29 24 22 19 16 17 18 18 18 19 19 17 13
2 3 3 4 4 6 17 6 8 5 14 15 14 18 12 7 9 15 22 26 29 30 34 36 37 37 40 32 25 25 32 29 25 21 19 18 18 18 17 17 17 19 16 12
4 6 3 4 8 13 6 9 9 11 15 15 15 11 7 1 6 11 19 23 23 27 36 35 32 34 33 31 30 30 27 25 24 21 19 18 18 20 18 18 19 18 14 11
9 6 4 6 9 8 13 14 17 22 14 15 13 9 5 9 14 17 19 21 18 19 21 24 31 33 30 28 31 27 23 23 22 20 19 19 21 22 20 20 18 16 15 13
Wind_Direction
20 119 172 222 199 219 196 172 226 271 169 147 188 156 177 193 209 216 210 211 212 221 228 225 216 221 222 224 225 219 215 209 206 202 203 222 228 245 268 271 251 274 279 292
11 234 218 158 203 233 210 190 244 308 109 141 177 206 205 194 210 213 216 218 222 220 223 219 208 213 212 216 220 220 218 214 217 214 208 215 208 236 251 251 237 247 256 291
189 216 105 187 126 277 262 231 211 197 137 41 110 282 219 234 230 226 224 230 229 222 214 212 211 211 212 217 214 216 219 215 221 214 212 216 208 187 234 249 232 258 262 271
242 222 232 275 269 141 285 215 252 181 152 221 155 267 265 206 233 230 227 223 232 224 216 208 208 211 213 218 217 220 214 217 220 218 226 236 250 217 225 245 237 231 258 279
242 255 196 170 228 152 250 232 252 197 151 109 195 67 272 331 251 223 222 226 222 220 214 210 209 213 211 211 215 223 221 220 216 221 221 244 251 235 238 224 235 235 254 267
244 288 179 216 241 178 265 292 13 37 120 115 228 179 280 195 228 216 226 223 223 217 216 216 209 211 209 205 205 215 215 217 219 221 223 239 235 237 231 244 229 242 258 274
310 256 250 215 300 93 114 62 312 5 93 207 224 139 237 258 227 202 215 219 217 221 215 215 211 205 205 205 205 206 219 220 216 217 224 231 225 234 240 237 234 243 255 269
187 300 182 195 183 212 202 162 160 229 220 246 156 228 248 191 254 226 238 226 216 220 215 215 215 208 202 206 209 214 225 223 222 221 219 217 222 238 231 226 241 243 255 260
166 266 288 183 163 119 282 207 202 106 10 80 242 293 307 228 245 214 200 203 216 223 217 215 215 209 202 205 210 217 222 220 219 217 220 221 223 224 227 241 241 246 257 269
227 254 215 257 150 239 159 178 319 0 180 235 280 272 237 271 222 207 199 216 230 228 220 216 216 206 202 199 203 209 212 207 207 211 215 221 220 228 238 240 243 248 257 269
154 139 275 47 177 226 292 222 79 132 137 178 209 257 217 225 233 194 205 207 207 213 209 212 213 205 201 197 199 201 202 202 205 205 211 217 216 224 224 228 239 250 261 273
226 173 211 223 238 203 167 209 158 134 259 187 172 268 230 222 244 174 212 201 211 217 204 205 201 197 195 192 194 200 194 200 206 201 200 197 202 202 212 215 225 243 264 277
306 291 333 321 352 345 195 191 159 136 78 196 159 256 315 295 190 191 196 203 199 208 201 201 196 192 189 193 193 189 193 196 195 189 189 186 185 194 201 218 238 260 269 272
143 131 174 214 213 177 161 211 172 125 113 198 213 245 255 257 218 193 193 214 205 194 192 194 191 189 189 187 185 187 190 191 186 185 194 196 193 197 213 237 266 272 250 199
52 43 340 295 264 272 184 206 168 180 191 166 260 201 240 240 196 207 196 184 186 183 188 195 191 186 186 186 184 186 186 187 190 195 194 192 195 207 219 242 264 248 203 166
350 308 9 299 339 240 269 226 215 189 164 247 255 265 257 316 159 174 191 185 186 191 192 192 194 190 189 188 186 187 189 194 196 199 195 193 199 208 230 241 223 200 171 152
127 38 30 284 329 256 287 228 184 99 40 333 19 281 315 272 201 195 196 195 195 196 197 197 199 195 194 189 191 191 190 193 194 197 192 191 199 217 230 228 198 178 165 151
197 136 144 257 324 2 243 337 354 98 70 16 294 297 309 276 246 226 207 201 200 205 204 201 198 190 190 193 194 194 190 192 188 192 193 194 202 220 221 205 186 170 164 156
188 128 192 163 255 287 20 6 342 28 339 7 330 324 324 335 286 240 226 216 217 212 193 182 187 191 189 192 196 193 191 194 190 190 197 204 215 216 208 195 180 170 160 153
65 28 142 154 260 254 226 304 293 206 227 342 341 317 322 334 150 252 239 212 199 191 189 187 191 192 190 192 187 191 206 200 197 194 202 210 216 211 200 187 175 170 163 159
339 5 204 171 202 285 296 316 0 67 265 315 320 311 308 309 257 308 293 197 201 192 187 189 192 193 194 184 185 197 204 201 201 197 208 212 211 203 191 183 175 168 169 176
152 120 293 313 166 219 345 0 95 221 290 319 339 334 319 328 297 256 193 185 188 188 187 190 186 190 187 190 189 184 198 200 199 202 209 207 204 194 186 183 177 176 183 183
239 174 197 180 236 277 354 330 154 311 294 335 344 342 345 18 120 178 177 172 177 179 178 184 187 184 183 193 198 186 192 197 200 204 204 205 194 190 186 184 177 181 187 188
286 173 184 27 269 243 303 271 228 328 302 306 329 336 356 31 127 154 164 170 172 180 180 184 184 185 191 190 190 192 193 192 198 202 204 195 190 184 187 183 186 190 191 199
232 153 199 256 281 294 273 295 323 297 289 301 306 318 321 138 143 140 161 167 181 189 188 184 194 201 191 184 189 189 195 191 195 201 199 193 189 184 182 181 182 188 198 207
218 223 189 240 252 247 270 292 309 315 328 306 293 296 272 217 176 163 163 202 211 209 216 202 200 196 191 189 191 191 201 199 197 195 196 196 191 187 191 186 187 197 194 201